Location: Unnamed
(45.1820°N, 67.3015°W)
Time: 06:59:55
(UTC-04:00)

ISS - Visible Passes

Search period start: 09 February 2026 00:00
Search period end: 19 February 2026 00:00
Orbit: 414 x 429 km, 51.6° (Epoch: 9 February)

Date Brightness Start Highest point End Pass type
(mag) Time Alt. Az. Time Alt. Az. Time Alt. Az.
11 Feb -1.2 06:44:09 10° S 06:46:48 22° SE 06:49:28 10° E visible
12 Feb -0.8 05:58:06 10° SSE 05:59:57 14° SE 06:01:48 10° E visible
13 Feb -3.2 06:46:02 10° SW 06:49:20 58° SE 06:52:37 10° ENE visible
14 Feb -2.4 06:00:02 16° SSW 06:02:20 36° SE 06:05:26 10° ENE visible
15 Feb -1.7 05:15:21 23° SE 05:15:22 23° SE 05:18:05 10° E visible
15 Feb -3.6 06:48:40 10° WSW 06:51:59 60° NNW 06:55:18 10° ENE visible
16 Feb -3.9 06:03:29 33° WSW 06:04:51 88° NNW 06:08:12 10° ENE visible
17 Feb -2.7 05:18:27 46° E 05:18:27 46° E 05:21:03 10° ENE visible
17 Feb -2.8 06:51:38 10° W 06:54:43 34° NNW 06:57:49 10° NE visible
18 Feb -0.4 04:33:19 13° ENE 04:33:19 13° ENE 04:33:47 10° ENE visible
18 Feb -3.2 06:06:18 30° WNW 06:07:28 43° NNW 06:10:41 10° NE visible
